{"data":{"norad_id":68733,"intl_designator":"2026-082F","name":"STARLINK-37278","alt_names":[],"object_type":"PAYLOAD","status":"ACTIVE","operator":null,"country":"US","launch_date":"2026-04-15","launch_site_code":"AFWTR","launch_vehicle":null,"mission":null,"orbit_class":"UNKNOWN","rcs_meters":null,"size_class":null,"mass_kg":null,"dimensions":null,"purposes":["comms"],"wikipedia_slug":null,"has_3d_model":false,"image_url":null,"decayed_at":null,"tle_current":{"epoch":"2026-05-25T04:00:03.998880Z","epoch_age_seconds":54581,"freshness":"FRESH","line1":"1 68733U 26082F   26145.16671295  .00013969  00000+0  25810-3 0  9996","line2":"2 68733  97.2855   8.8522 0001792  77.1860 184.4405 15.49182674  5792","mean_motion":15.49182674,"eccentricity":0.0001792,"inclination_deg":97.2855,"raan_deg":8.8522,"arg_perigee_deg":77.186,"mean_anomaly_deg":184.4405,"bstar":0.0002581,"rev_number":579,"period_min":92.952240182361,"perigee_km":417.89770465246,"apogee_km":420.33384004607,"semimajor_km":6797.2527723493,"source":"CELESTRAK","updated_at":"2026-05-25T13:38:22.005321Z"}}}